Lid_Strength_Index
10 14 14 13 12 12 11 11 13 11 9 12 12 11 10 9 11 10 10 10 10 10 9 10 11 10 10 9 9 8 8 8 8 9 9 9 9 9 9 8 8 9 8 8
11 13 10 10 11 12 12 13 13 11 11 13 13 12 10 9 9 10 10 10 10 10 10 11 11 11 10 10 9 9 9 9 9 9 9 8 8 8 8 8 9 9 9 9
12 10 9 9 11 13 13 14 13 13 12 13 14 14 12 10 9 9 9 9 9 10 11 11 11 11 11 11 10 9 9 9 9 9 9 10 10 10 10 10 9 9 9 9
11 8 9 10 11 11 15 11 12 13 13 16 13 18 12 10 10 10 10 10 9 10 10 11 12 11 11 11 10 10 10 10 10 10 10 10 10 10 9 9 9 9 9 10
12 11 11 13 11 9 12 11 12 13 14 15 15 18 14 10 11 11 12 10 11 10 11 11 11 11 11 11 11 11 10 11 11 10 10 10 10 10 9 10 10 10 10 10
11 7 9 10 9 10 10 13 14 14 15 19 16 17 15 12 12 11 11 12 12 12 12 11 11 12 12 11 11 11 11 11 11 11 11 11 11 10 10 10 11 10 10 10
12 12 10 9 12 12 13 14 19 20 20 20 14 16 14 10 10 10 10 13 13 12 12 12 13 13 12 12 12 12 12 12 11 11 11 11 11 10 11 11 11 11 11 11
16 18 12 10 11 13 14 14 18 22 21 18 16 18 14 12 14 15 13 13 13 13 13 13 13 13 13 12 12 12 12 12 11 12 11 11 11 11 11 11 11 11 11 10
16 16 10 11 9 10 14 16 12 17 19 19 18 16 13 13 16 16 14 13 14 13 13 13 13 12 12 13 12 12 12 12 12 12 12 11 11 11 11 11 11 11 11 11
12 16 11 11 10 11 12 10 17 16 22 22 18 16 16 15 15 16 16 14 14 13 13 14 14 13 13 13 13 13 13 14 13 13 12 12 11 12 12 12 13 12 12 12
11 14 15 12 13 14 14 15 14 15 16 21 20 18 14 14 14 15 15 14 13 14 14 15 14 14 16 16 17 16 16 16 16 15 13 12 12 12 13 14 14 13 13 13
11 13 16 15 14 12 10 14 13 17 18 16 17 17 16 16 15 14 14 13 13 14 14 14 15 17 17 17 17 17 17 18 17 16 15 14 14 14 14 14 14 14 14 13
11 14 18 17 15 14 14 13 13 13 14 17 19 17 16 17 17 14 14 14 14 15 15 15 16 17 17 17 17 18 18 18 18 17 17 16 15 15 15 14 14 14 14 14
9 13 15 18 16 13 15 13 13 14 17 16 16 16 14 15 16 15 15 15 15 15 16 17 17 17 17 17 18 18 18 18 18 18 18 17 16 15 15 15 15 15 14 15
10 15 14 15 15 14 14 14 14 15 14 16 14 14 13 13 14 15 14 15 15 16 16 16 16 17 17 18 18 19 18 18 18 19 18 17 16 16 16 16 16 16 15 15
10 14 15 16 16 15 16 14 14 14 13 13 17 16 13 16 15 15 15 15 15 15 16 16 16 16 18 18 19 18 18 19 18 19 19 18 18 18 18 17 17 17 17 16
12 13 15 17 17 16 17 16 15 14 13 13 15 12 13 14 15 15 15 15 15 14 15 15 16 17 18 19 18 18 19 18 18 18 18 17 17 17 16 16 16 17 17 16
12 13 14 17 17 20 17 17 16 13 14 12 12 13 13 13 14 14 13 13 13 14 15 16 17 18 18 18 19 18 17 17 17 18 17 17 17 17 17 17 17 16 15 15
11 12 15 17 17 14 15 16 15 15 15 15 14 13 14 16 16 15 16 15 13 14 16 17 18 18 18 19 19 18 18 18 18 18 18 18 18 18 17 18 17 16 16 16
11 12 14 16 18 20 15 15 15 15 17 16 17 16 15 17 16 13 17 16 17 18 18 19 19 19 19 20 19 18 18 18 18 18 18 18 18 18 18 18 17 16 16 16
14 14 16 16 17 16 15 14 14 18 17 16 18 17 16 16 16 16 17 18 18 19 19 19 19 19 20 19 19 19 19 19 19 19 19 19 18 19 18 17 17 17 17 17
15 15 16 16 17 18 14 15 15 14 14 15 16 18 16 18 17 17 18 19 19 19 18 18 18 18 18 19 19 19 19 19 19 20 20 20 19 19 18 18 18 18 17 17
15 15 15 15 15 13 13 13 13 14 14 13 14 17 16 17 17 17 18 17 18 17 18 18 18 19 19 19 19 19 19 20 20 22 22 21 19 19 18 18 18 17 17 17
13 13 14 14 12 12 12 12 13 14 13 13 14 14 15 15 16 16 16 17 17 17 18 18 19 19 19 19 19 20 20 21 23 22 20 19 19 19 18 18 17 17 17 17
13 13 14 13 12 11 11 11 11 12 13 13 14 14 14 14 15 15 16 17 17 17 18 18 18 19 19 19 20 20 20 22 22 21 20 19 19 19 19 18 18 18 17 16
12 14 14 14 12 13 12 11 12 12 12 13 14 15 15 14 15 15 16 16 17 18 19 19 19 19 19 20 20 20 22 23 24 21 19 19 20 18 19 19 18 16 16 16